Home   Weather   Guarulhos   Past weeks
Flag for Brazil

Past Weather in Guarulhos, São Paulo, Brazil — Yesterday and Last 2 Weeks

Now
82 °F

Sunny.


Feels Like: 83 °F
Forecast: 83 / 57 °F
Wind: 9 mph from West

Location: Guarulhos Civ / Mil

Current Time: Apr 20, 2019 at 3:29:11 pm

Latest Report: Apr 20, 2019 at 3:00 pm


Visibility: 10 mi

Pressure: 30.01 "Hg (27.53 "Hg at 759m altitude)

Humidity: 48%

Dew Point: 61 °F

Location of GuarulhosLocation

Past Weather in Guarulhos — Graph

°F

Guarulhos Temperature Yesterday

Maximum temperature yesterday: 81 °F (at 4:00 pm)
Minimum temperature yesterday: 57 °F (at 4:00 am)
Average temperature yesterday: 67 °F

High & Low Weather Summary for the Past Weeks

 TemperatureHumidityPressure
High88 °F (Apr 5, 2:00 pm)100% (Apr 6, 4:00 am)30.18 "Hg (Apr 6, 4:00 am)
Low55 °F (Apr 20, 4:00 am)39% (Apr 19, 4:00 pm)29.89 "Hg (Apr 5, 3:00 pm)
Average70 °F89%30.05 "Hg
* Reported Apr 5 2:00 pm — Apr 20 2:00 pm, Guarulhos. Weather by CustomWeather, © 2019

Note: Actual official high and low records may vary slightly from our data, if they occured in-between our weather recording intervals... More about our weather records

Advertising

Guarulhos Weather History for the Previous 24 Hours

Scroll right to see more
 ConditionsComfort  
Time TempWeatherWind HumidityBarometerVisibility
2:00 pm
Sat, Apr 20
82 °FSunny.9 mph51%30.01 "Hg10 mi
1:00 pm81 °FSunny.7 mph51%30.04 "Hg10 mi
12:00 pm79 °FSunny.6 mph51%30.04 "Hg10 mi
11:00 am75 °FSunny.3 mph65%30.07 "Hg10 mi
10:00 am70 °FSunny.5 mph78%30.09 "Hg10 mi
9:00 am63 °FSunny.2 mph100%30.09 "Hg10 mi
8:25 am59 °FFog.5 mph100%30.09 "Hg2 mi
8:00 am57 °FFog.6 mph100%30.09 "Hg1 mi
7:00 am57 °FFog.6 mph100%30.07 "Hg1 mi
6:00 am57 °FFog.7 mph100%30.04 "Hg0 mi
5:00 am55 °FClear.2 mph100%30.01 "Hg5 mi
4:00 am55 °FClear.No wind100%30.01 "Hg6 mi
3:00 am59 °FClear.No wind100%30.04 "Hg6 mi
2:00 am61 °FClear.5 mph94%30.04 "Hg6 mi
1:00 am61 °FClear.3 mph100%30.04 "Hg6 mi
12:00 am61 °FClear.No wind100%30.07 "Hg10 mi
11:00 pm
Fri, Apr 19
63 °FClear.2 mph100%30.07 "Hg10 mi
10:00 pm63 °FClear.No wind100%30.07 "Hg10 mi
9:00 pm64 °FClear.2 mph100%30.07 "Hg10 mi
8:00 pm66 °FClear.No wind94%30.04 "Hg10 mi
7:00 pm72 °FClear.6 mph83%30.01 "Hg10 mi
6:00 pm72 °FClear.No wind73%30.01 "Hg10 mi
5:00 pm79 °FSunny.5 mph54%29.98 "Hg10 mi
4:00 pm81 °FSunny.3 mph39%29.98 "Hg10 mi
3:00 pm79 °FSunny.2 mph42%30.01 "Hg10 mi
Weather by CustomWeather, © 2019

See weather overview